This is the latest recevied weather packets stored in our database for station/object WB5RFA. If no packets are shown the sender has not sent any weather packets the latest 1 day(s).
| Time | Temp. | Humidity | Pressure | Rain* | Wind** | Luminosity | Snow |
|---|---|---|---|---|---|---|---|
| 1778049432 | 8.33° C | 80% | 1014.3 hPa | 0 mm | - | - | - |
| 1778048951 | 8.33° C | 79% | 1014.3 hPa | 0 mm | - | - | - |
| 1778048472 | 8.33° C | 79% | 1014.5 hPa | 0 mm | - | - | - |
| 1778047992 | 8.33° C | 79% | 1014.5 hPa | 0 mm | - | - | - |
| 1778046552 | 8.33° C | 77% | 1014.5 hPa | 0 mm | - | - | - |
| 1778046071 | 8.89° C | 76% | 1014.3 hPa | 0 mm | - | - | - |
| 1778045111 | 8.89° C | 75% | 1014.3 hPa | 0 mm | - | - | - |
| 1778044632 | 8.89° C | 74% | 1014.5 hPa | 0 mm | - | - | - |
| 1778044152 | 8.89° C | 73% | 1014.1 hPa | 0 mm | - | - | - |
| 1778042712 | 9.44° C | 70% | 1014 hPa | 0 mm | - | - | - |
| 1778042231 | 9.44° C | 71% | 1013.8 hPa | 0 mm | - | - | - |
| 1778041752 | 9.44° C | 70% | 1013.8 hPa | 0 mm | - | - | - |
| 1778040793 | 10° C | 69% | 1013.9 hPa | 0 mm | - | - | - |
| 1778040312 | 10° C | 70% | 1013.5 hPa | 0 mm | - | - | - |
| 1778039353 | 9.44° C | 79% | 1013.2 hPa | 0 mm | - | - | - |
| 1778038872 | 10° C | 80% | 1013.1 hPa | 0 mm | - | - | - |
| 1778038391 | 10° C | 80% | 1012.5 hPa | 0 mm | - | - | - |
| 1778037912 | 10° C | 79% | 1012.2 hPa | 0 mm | - | - | - |
| 1778036953 | 10° C | 81% | 1012 hPa | 0 mm | - | - | - |
| 1778036472 | 10° C | 82% | 1012 hPa | 0 mm | - | - | - |
| 1778035991 | 10° C | 84% | 1011.8 hPa | 0 mm | - | - | - |
| 1778035511 | 10° C | 84% | 1011.6 hPa | 0 mm | - | - | - |
| 1778035033 | 10° C | 84% | 1011.5 hPa | 0 mm | - | - | - |
| 1778034552 | 10° C | 84% | 1011.5 hPa | 0 mm | - | - | - |
| 1778034071 | 10° C | 84% | 1011.4 hPa | 0 mm | - | - | - |
* Rain latest hour (hover to see other rain measurements)
** Current wind speed in m/s (hover to see current wind gust speed)